カタログに戻る

CZ-6A DEB

運用中SSO
NORAD 56673·DEBRIS·🇨🇳 China

打ち上げ Nov 11, 2022 から Taiyuan Satellite Launch Center

Loading…

次のパス (今後24時間)

TLE

最新Source: Space-Track

元期: Sep 13, 2026, 08:47 UTC

1 56673U 22151AGZ 26256.36662021  .00002074  00000-0  69332-3 0  9994
2 56673  98.7372 293.2432 0033024  53.0017 307.4184 14.38209149108599

AllMySatでCZ-6A DEBをリアルタイム追跡

Download on the App Store